Time,TemperatureF,DewpointF,PressureIn,WindDirection,WindDirectionDegrees,WindSpeedMPH,WindSpeedGustMPH,Humidity,HourlyPrecipIn,Conditions,Clouds,dailyrainin,SoftwareType,DateUTC
2013-02-18 00:00:00,37.1,20.7,30.25,South,171,0.0,-999.0,51,0.00,,,0.00,Haskell-WGSend-v0.01,2013-02-18 06:00:00,
2013-02-18 00:05:00,37.1,20.7,30.26,SSE,167,0.0,-999.0,51,0.00,,,0.00,Haskell-WGSend-v0.01,2013-02-18 06:05:00,
2013-02-18 00:10:00,37.2,20.8,30.25,SSE,167,0.0,-999.0,51,0.00,,,0.00,Haskell-WGSend-v0.01,2013-02-18 06:10:00,
2013-02-18 00:15:00,37.3,20.9,30.25,SSE,167,0.0,-999.0,51,0.00,,,0.00,Haskell-WGSend-v0.01,2013-02-18 06:15:00,
2013-02-18 00:20:00,37.4,20.5,30.25,SSE,162,4.0,-999.0,50,0.00,,,0.00,Haskell-WGSend-v0.01,2013-02-18 06:20:00,
2013-02-18 00:25:00,37.6,20.7,30.25,SSE,165,0.0,-999.0,50,0.00,,,0.00,Haskell-WGSend-v0.01,2013-02-18 06:25:00,
2013-02-18 00:30:00,37.7,20.8,30.25,SSE,165,0.0,-999.0,50,0.00,,,0.00,Haskell-WGSend-v0.01,2013-02-18 06:30:00,
2013-02-18 00:35:00,37.7,20.8,30.25,SSE,164,2.0,-999.0,50,0.00,,,0.00,Haskell-WGSend-v0.01,2013-02-18 06:35:00,
2013-02-18 00:40:00,37.8,20.9,30.25,SSE,162,0.0,-999.0,50,0.00,,,0.00,Haskell-WGSend-v0.01,2013-02-18 06:40:00,
2013-02-18 00:45:00,37.8,20.9,30.25,SSE,161,0.0,-999.0,50,0.00,,,0.00,Haskell-WGSend-v0.01,2013-02-18 06:45:00,
2013-02-18 00:50:00,37.8,20.9,30.25,SSE,161,0.0,-999.0,50,0.00,,,0.00,Haskell-WGSend-v0.01,2013-02-18 06:50:00,
2013-02-18 00:55:00,37.8,20.9,30.25,SSE,163,0.0,-999.0,50,0.00,,,0.00,Haskell-WGSend-v0.01,2013-02-18 06:55:00,
2013-02-18 01:00:00,37.9,21.0,30.25,SSE,153,1.0,-999.0,50,0.00,,,0.00,Haskell-WGSend-v0.01,2013-02-18 07:00:00,
2013-02-18 01:05:00,37.9,21.0,30.25,SSE,153,0.0,-999.0,50,0.00,,,0.00,Haskell-WGSend-v0.01,2013-02-18 07:05:00,
2013-02-18 01:10:00,37.9,21.4,30.25,SSE,153,0.0,-999.0,51,0.00,,,0.00,Haskell-WGSend-v0.01,2013-02-18 07:10:00,
2013-02-18 01:15:00,37.8,21.3,30.25,SSE,153,0.0,-999.0,51,0.00,,,0.00,Haskell-WGSend-v0.01,2013-02-18 07:15:00,
2013-02-18 01:20:00,37.8,21.3,30.25,SSE,153,0.0,-999.0,51,0.00,,,0.00,Haskell-WGSend-v0.01,2013-02-18 07:20:00,
2013-02-18 01:25:00,37.7,20.8,30.25,SSE,155,0.0,-999.0,50,0.00,,,0.00,Haskell-WGSend-v0.01,2013-02-18 07:25:00,
2013-02-18 01:30:00,37.7,20.8,30.25,SSE,150,0.0,-999.0,50,0.00,,,0.00,Haskell-WGSend-v0.01,2013-02-18 07:30:00,
2013-02-18 01:35:00,37.8,21.3,30.25,SSE,159,1.0,-999.0,51,0.00,,,0.00,Haskell-WGSend-v0.01,2013-02-18 07:35:00,
2013-02-18 01:45:00,37.7,20.8,30.25,SSE,159,0.0,-999.0,50,0.00,,,0.00,Haskell-WGSend-v0.01,2013-02-18 07:45:00,
2013-02-18 01:50:00,37.7,21.2,30.25,SSE,159,0.0,-999.0,51,0.00,,,0.00,Haskell-WGSend-v0.01,2013-02-18 07:50:00,
2013-02-18 02:00:00,37.6,21.2,30.25,SSE,159,1.0,-999.0,51,0.00,,,0.00,Haskell-WGSend-v0.01,2013-02-18 08:00:00,
2013-02-18 02:10:00,37.4,21.0,30.24,SSE,159,0.0,-999.0,51,0.00,,,0.00,Haskell-WGSend-v0.01,2013-02-18 08:10:00,
2013-02-18 02:15:00,37.3,20.9,30.25,SSE,159,0.0,-999.0,51,0.00,,,0.00,Haskell-WGSend-v0.01,2013-02-18 08:15:00,
2013-02-18 02:20:00,37.2,21.2,30.24,SSE,159,0.0,-999.0,52,0.00,,,0.00,Haskell-WGSend-v0.01,2013-02-18 08:20:00,
2013-02-18 02:25:00,37.2,21.2,30.25,SSE,159,0.0,-999.0,52,0.00,,,0.00,Haskell-WGSend-v0.01,2013-02-18 08:25:00,
2013-02-18 02:35:00,37.1,21.1,30.25,SSE,159,0.0,-999.0,52,0.00,,,0.00,Haskell-WGSend-v0.01,2013-02-18 08:35:00,
2013-02-18 02:40:00,37.0,21.1,30.24,SSE,159,0.0,-999.0,52,0.00,,,0.00,Haskell-WGSend-v0.01,2013-02-18 08:40:00,
2013-02-18 02:45:00,37.0,21.5,30.25,SSE,159,0.0,-999.0,53,0.00,,,0.00,Haskell-WGSend-v0.01,2013-02-18 08:45:00,
2013-02-18 02:50:00,37.1,21.6,30.24,SSE,159,0.0,-999.0,53,0.00,,,0.00,Haskell-WGSend-v0.01,2013-02-18 08:50:00,
2013-02-18 02:55:00,37.1,21.1,30.24,SSE,159,0.0,-999.0,52,0.00,,,0.00,Haskell-WGSend-v0.01,2013-02-18 08:55:00,
2013-02-18 03:00:00,37.1,21.1,30.24,SSE,159,0.0,-999.0,52,0.00,,,0.00,Haskell-WGSend-v0.01,2013-02-18 09:00:00,
2013-02-18 03:05:00,37.2,21.2,30.24,SSE,159,0.0,-999.0,52,0.00,,,0.00,Haskell-WGSend-v0.01,2013-02-18 09:05:00,
2013-02-18 03:15:00,37.3,21.3,30.24,SSE,159,0.0,-999.0,52,0.00,,,0.00,Haskell-WGSend-v0.01,2013-02-18 09:15:00,
2013-02-18 03:20:00,37.2,21.7,30.24,SSE,159,0.0,-999.0,53,0.00,,,0.00,Haskell-WGSend-v0.01,2013-02-18 09:20:00,
2013-02-18 03:25:00,37.2,21.7,30.24,SSE,159,1.0,-999.0,53,0.00,,,0.00,Haskell-WGSend-v0.01,2013-02-18 09:25:00,
2013-02-18 03:30:00,37.0,21.5,30.24,SSE,159,0.0,-999.0,53,0.00,,,0.00,Haskell-WGSend-v0.01,2013-02-18 09:30:00,
2013-02-18 03:35:00,36.9,21.9,30.24,SSE,159,0.0,-999.0,54,0.00,,,0.00,Haskell-WGSend-v0.01,2013-02-18 09:35:00,
2013-02-18 03:40:00,36.8,21.8,30.24,SSE,159,0.0,-999.0,54,0.00,,,0.00,Haskell-WGSend-v0.01,2013-02-18 09:40:00,
2013-02-18 03:45:00,36.8,21.8,30.24,SSE,159,1.0,-999.0,54,0.00,,,0.00,Haskell-WGSend-v0.01,2013-02-18 09:45:00,
2013-02-18 03:50:00,36.9,21.9,30.24,SSE,159,0.0,-999.0,54,0.00,,,0.00,Haskell-WGSend-v0.01,2013-02-18 09:50:00,
2013-02-18 03:55:00,36.9,21.9,30.24,SSE,159,0.0,-999.0,54,0.00,,,0.00,Haskell-WGSend-v0.01,2013-02-18 09:55:00,
2013-02-18 04:00:00,36.9,21.9,30.24,SSE,159,1.0,-999.0,54,0.00,,,0.00,Haskell-WGSend-v0.01,2013-02-18 10:00:00,
2013-02-18 04:05:00,37.0,21.9,30.25,SSE,159,0.0,-999.0,54,0.00,,,0.00,Haskell-WGSend-v0.01,2013-02-18 10:05:00,
2013-02-18 04:10:00,37.0,21.9,30.25,SSE,159,0.0,-999.0,54,0.00,,,0.00,Haskell-WGSend-v0.01,2013-02-18 10:10:00,
2013-02-18 04:15:00,36.9,21.9,30.25,SSE,159,0.0,-999.0,54,0.00,,,0.00,Haskell-WGSend-v0.01,2013-02-18 10:15:00,
2013-02-18 04:25:00,36.8,22.2,30.25,SSE,159,0.0,-999.0,55,0.00,,,0.00,Haskell-WGSend-v0.01,2013-02-18 10:25:00,
2013-02-18 04:30:00,36.6,22.4,30.25,SSE,159,0.0,-999.0,56,0.00,,,0.00,Haskell-WGSend-v0.01,2013-02-18 10:30:00,
2013-02-18 04:35:00,36.6,22.4,30.26,SSE,159,0.0,-999.0,56,0.00,,,0.00,Haskell-WGSend-v0.01,2013-02-18 10:35:00,
2013-02-18 04:40:00,36.6,22.4,30.25,SSE,159,0.0,-999.0,56,0.00,,,0.00,Haskell-WGSend-v0.01,2013-02-18 10:40:00,
2013-02-18 04:45:00,36.6,22.8,30.26,SSE,159,0.0,-999.0,57,0.00,,,0.00,Haskell-WGSend-v0.01,2013-02-18 10:45:00,
2013-02-18 04:50:00,36.6,22.8,30.25,SSE,159,0.0,-999.0,57,0.00,,,0.00,Haskell-WGSend-v0.01,2013-02-18 10:50:00,
2013-02-18 05:00:00,36.8,23.0,30.25,SSE,159,1.0,-999.0,57,0.00,,,0.00,Haskell-WGSend-v0.01,2013-02-18 11:00:00,
2013-02-18 05:05:00,36.7,22.9,30.26,SSE,159,0.0,-999.0,57,0.00,,,0.00,Haskell-WGSend-v0.01,2013-02-18 11:05:00,
2013-02-18 05:10:00,36.7,22.9,30.25,SSE,159,0.0,-999.0,57,0.00,,,0.00,Haskell-WGSend-v0.01,2013-02-18 11:10:00,
2013-02-18 05:15:00,36.7,23.4,30.26,SSE,159,0.0,-999.0,58,0.00,,,0.00,Haskell-WGSend-v0.01,2013-02-18 11:15:00,
2013-02-18 05:20:00,36.7,23.4,30.26,SSE,159,0.0,-999.0,58,0.00,,,0.00,Haskell-WGSend-v0.01,2013-02-18 11:20:00,
2013-02-18 05:25:00,36.7,23.4,30.26,SSE,159,1.0,-999.0,58,0.00,,,0.00,Haskell-WGSend-v0.01,2013-02-18 11:25:00,
2013-02-18 05:30:00,36.7,23.4,30.26,SSE,159,0.0,-999.0,58,0.00,,,0.00,Haskell-WGSend-v0.01,2013-02-18 11:30:00,
2013-02-18 05:35:00,36.7,23.4,30.26,SSE,159,1.0,-999.0,58,0.00,,,0.00,Haskell-WGSend-v0.01,2013-02-18 11:35:00,
2013-02-18 05:40:00,36.7,23.4,30.26,SSE,159,0.0,-999.0,58,0.00,,,0.00,Haskell-WGSend-v0.01,2013-02-18 11:40:00,
2013-02-18 05:45:00,36.6,23.3,30.26,SSE,159,0.0,-999.0,58,0.00,,,0.00,Haskell-WGSend-v0.01,2013-02-18 11:45:00,
2013-02-18 05:50:00,36.6,23.7,30.26,SSE,159,0.0,-999.0,59,0.00,,,0.00,Haskell-WGSend-v0.01,2013-02-18 11:50:00,
2013-02-18 05:55:00,36.6,23.7,30.26,SSE,159,0.0,-999.0,59,0.00,,,0.00,Haskell-WGSend-v0.01,2013-02-18 11:55:00,
2013-02-18 06:00:00,36.5,23.6,30.26,SSE,159,0.0,-999.0,59,0.00,,,0.00,Haskell-WGSend-v0.01,2013-02-18 12:00:00,
2013-02-18 06:05:00,36.3,23.4,30.27,SSE,159,0.0,-999.0,59,0.00,,,0.00,Haskell-WGSend-v0.01,2013-02-18 12:05:00,
2013-02-18 06:10:00,36.1,23.2,30.27,SSE,159,0.0,-999.0,59,0.00,,,0.00,Haskell-WGSend-v0.01,2013-02-18 12:10:00,
2013-02-18 06:15:00,36.0,23.5,30.27,SSE,159,0.0,-999.0,60,0.00,,,0.00,Haskell-WGSend-v0.01,2013-02-18 12:15:00,
2013-02-18 06:20:00,35.9,23.8,30.27,SSE,159,0.0,-999.0,61,0.00,,,0.00,Haskell-WGSend-v0.01,2013-02-18 12:20:00,
2013-02-18 06:25:00,35.7,23.6,30.27,SSE,159,0.0,-999.0,61,0.00,,,0.00,Haskell-WGSend-v0.01,2013-02-18 12:25:00,
2013-02-18 06:30:00,35.7,24.0,30.27,SSE,159,0.0,-999.0,62,0.00,,,0.00,Haskell-WGSend-v0.01,2013-02-18 12:30:00,
2013-02-18 06:35:00,35.7,24.0,30.28,SSE,159,0.0,-999.0,62,0.00,,,0.00,Haskell-WGSend-v0.01,2013-02-18 12:35:00,
2013-02-18 06:40:00,35.8,24.1,30.28,SSE,159,0.0,-999.0,62,0.00,,,0.00,Haskell-WGSend-v0.01,2013-02-18 12:40:00,
2013-02-18 06:45:00,35.8,24.1,30.28,SSE,159,0.0,-999.0,62,0.00,,,0.00,Haskell-WGSend-v0.01,2013-02-18 12:45:00,
2013-02-18 06:50:00,36.0,24.3,30.28,SSE,159,0.0,-999.0,62,0.00,,,0.00,Haskell-WGSend-v0.01,2013-02-18 12:50:00,
2013-02-18 06:55:00,36.1,24.8,30.28,SSE,159,1.0,-999.0,63,0.00,,,0.00,Haskell-WGSend-v0.01,2013-02-18 12:55:00,
2013-02-18 07:00:00,36.2,24.9,30.28,SSE,159,0.0,-999.0,63,0.00,,,0.00,Haskell-WGSend-v0.01,2013-02-18 13:00:00,
2013-02-18 07:05:00,36.4,25.0,30.27,SSE,156,0.0,-999.0,63,0.00,,,0.00,Haskell-WGSend-v0.01,2013-02-18 13:05:00,
2013-02-18 07:10:00,36.8,25.4,30.28,SSE,156,0.0,-999.0,63,0.00,,,0.00,Haskell-WGSend-v0.01,2013-02-18 13:10:00,
2013-02-18 07:15:00,37.2,25.8,30.27,SSE,156,0.0,-999.0,63,0.00,,,0.00,Haskell-WGSend-v0.01,2013-02-18 13:15:00,
2013-02-18 07:20:00,37.7,26.3,30.28,SSE,157,0.0,-999.0,63,0.00,,,0.00,Haskell-WGSend-v0.01,2013-02-18 13:20:00,
2013-02-18 07:25:00,38.3,26.8,30.28,SSE,156,0.0,-999.0,63,0.00,,,0.00,Haskell-WGSend-v0.01,2013-02-18 13:25:00,
2013-02-18 07:30:00,38.9,27.0,30.28,SSE,159,2.0,-999.0,62,0.00,,,0.00,Haskell-WGSend-v0.01,2013-02-18 13:30:00,
2013-02-18 07:35:00,39.8,27.9,30.28,SSE,158,0.0,-999.0,62,0.00,,,0.00,Haskell-WGSend-v0.01,2013-02-18 13:35:00,
2013-02-18 07:40:00,40.6,28.2,30.28,SSE,148,0.0,-999.0,61,0.00,,,0.00,Haskell-WGSend-v0.01,2013-02-18 13:40:00,
2013-02-18 07:45:00,41.4,28.6,30.28,SSE,155,2.0,-999.0,60,0.00,,,0.00,Haskell-WGSend-v0.01,2013-02-18 13:45:00,
2013-02-18 07:50:00,42.0,29.2,30.29,SSE,167,0.0,-999.0,60,0.00,,,0.00,Haskell-WGSend-v0.01,2013-02-18 13:50:00,
2013-02-18 07:55:00,42.4,29.1,30.29,SSE,161,0.0,-999.0,59,0.00,,,0.00,Haskell-WGSend-v0.01,2013-02-18 13:55:00,
2013-02-18 08:05:00,43.3,29.5,30.29,South,169,0.0,-999.0,58,0.00,,,0.00,Haskell-WGSend-v0.01,2013-02-18 14:05:00,
2013-02-18 08:10:00,43.5,29.7,30.29,SSE,163,4.0,-999.0,58,0.00,,,0.00,Haskell-WGSend-v0.01,2013-02-18 14:10:00,
2013-02-18 08:15:00,43.7,29.9,30.29,South,173,0.0,-999.0,58,0.00,,,0.00,Haskell-WGSend-v0.01,2013-02-18 14:15:00,
2013-02-18 08:20:00,44.0,30.6,30.29,South,188,5.0,-999.0,59,0.00,,,0.00,Haskell-WGSend-v0.01,2013-02-18 14:20:00,
2013-02-18 08:25:00,44.1,30.3,30.29,South,172,0.0,-999.0,58,0.00,,,0.00,Haskell-WGSend-v0.01,2013-02-18 14:25:00,
2013-02-18 08:30:00,44.3,30.9,30.29,South,178,4.0,-999.0,59,0.00,,,0.00,Haskell-WGSend-v0.01,2013-02-18 14:30:00,
2013-02-18 08:35:00,44.7,31.3,30.29,SSE,166,2.0,-999.0,59,0.00,,,0.00,Haskell-WGSend-v0.01,2013-02-18 14:35:00,
2013-02-18 08:40:00,44.9,31.5,30.29,SSW,192,5.0,-999.0,59,0.00,,,0.00,Haskell-WGSend-v0.01,2013-02-18 14:40:00,
2013-02-18 08:45:00,45.3,32.3,30.29,South,183,1.0,-999.0,60,0.00,,,0.00,Haskell-WGSend-v0.01,2013-02-18 14:45:00,
2013-02-18 08:50:00,45.6,32.5,30.29,South,177,1.0,-999.0,60,0.00,,,0.00,Haskell-WGSend-v0.01,2013-02-18 14:50:00,
2013-02-18 08:55:00,45.8,32.7,30.29,SSE,151,1.0,-999.0,60,0.00,,,0.00,Haskell-WGSend-v0.01,2013-02-18 14:55:00,
2013-02-18 09:00:00,46.1,33.0,30.29,SSW,207,3.0,-999.0,60,0.00,,,0.00,Haskell-WGSend-v0.01,2013-02-18 15:00:00,
2013-02-18 09:05:00,46.5,33.8,30.28,South,178,4.0,-999.0,61,0.00,,,0.00,Haskell-WGSend-v0.01,2013-02-18 15:05:00,
2013-02-18 09:15:00,47.7,35.3,30.28,SSE,151,4.0,-999.0,62,0.00,,,0.00,Haskell-WGSend-v0.01,2013-02-18 15:15:00,
2013-02-18 09:20:00,48.5,35.7,30.28,SSW,201,1.0,-999.0,61,0.00,,,0.00,Haskell-WGSend-v0.01,2013-02-18 15:20:00,
2013-02-18 09:25:00,49.0,35.7,30.28,SSE,157,7.0,-999.0,60,0.00,,,0.00,Haskell-WGSend-v0.01,2013-02-18 15:25:00,
2013-02-18 09:30:00,49.6,35.9,30.28,South,190,4.0,-999.0,59,0.00,,,0.00,Haskell-WGSend-v0.01,2013-02-18 15:30:00,
2013-02-18 09:35:00,50.3,36.1,30.28,SSW,202,2.0,-999.0,58,0.00,,,0.00,Haskell-WGSend-v0.01,2013-02-18 15:35:00,
2013-02-18 09:40:00,50.9,36.2,30.27,SSW,194,7.0,-999.0,57,0.00,,,0.00,Haskell-WGSend-v0.01,2013-02-18 15:40:00,
2013-02-18 09:50:00,51.0,35.9,30.27,SSE,148,5.0,-999.0,56,0.00,,,0.00,Haskell-WGSend-v0.01,2013-02-18 15:50:00,
2013-02-18 09:55:00,50.9,35.8,30.27,SSW,210,10.0,-999.0,56,0.00,,,0.00,Haskell-WGSend-v0.01,2013-02-18 15:55:00,
2013-02-18 10:05:00,51.7,36.1,30.27,SSW,213,1.0,-999.0,55,0.00,,,0.00,Haskell-WGSend-v0.01,2013-02-18 16:05:00,
2013-02-18 10:10:00,52.1,36.5,30.27,SE,138,5.0,-999.0,55,0.00,,,0.00,Haskell-WGSend-v0.01,2013-02-18 16:10:00,
2013-02-18 10:15:00,52.4,36.3,30.26,SE,132,4.0,-999.0,54,0.00,,,0.00,Haskell-WGSend-v0.01,2013-02-18 16:15:00,
2013-02-18 10:20:00,52.8,36.2,30.26,South,186,12.0,-999.0,53,0.00,,,0.00,Haskell-WGSend-v0.01,2013-02-18 16:20:00,
2013-02-18 10:25:00,53.3,36.6,30.26,SSW,198,7.0,-999.0,53,0.00,,,0.00,Haskell-WGSend-v0.01,2013-02-18 16:25:00,
2013-02-18 10:30:00,53.6,36.4,30.26,SSE,168,4.0,-999.0,52,0.00,,,0.00,Haskell-WGSend-v0.01,2013-02-18 16:30:00,
2013-02-18 10:35:00,54.1,36.4,30.26,SSW,207,8.0,-999.0,51,0.00,,,0.00,Haskell-WGSend-v0.01,2013-02-18 16:35:00,
2013-02-18 10:40:00,54.4,37.2,30.26,ESE,117,5.0,-999.0,52,0.00,,,0.00,Haskell-WGSend-v0.01,2013-02-18 16:40:00,
2013-02-18 10:45:00,55.2,36.9,30.25,SE,136,7.0,-999.0,50,0.00,,,0.00,Haskell-WGSend-v0.01,2013-02-18 16:45:00,
2013-02-18 10:50:00,55.4,37.1,30.25,SSE,155,1.0,-999.0,50,0.00,,,0.00,Haskell-WGSend-v0.01,2013-02-18 16:50:00,
2013-02-18 10:55:00,55.5,36.7,30.25,SSW,202,9.0,-999.0,49,0.00,,,0.00,Haskell-WGSend-v0.01,2013-02-18 16:55:00,
2013-02-18 11:00:00,55.5,37.2,30.25,ESE,121,4.0,-999.0,50,0.00,,,0.00,Haskell-WGSend-v0.01,2013-02-18 17:00:00,
2013-02-18 11:05:00,55.6,36.8,30.24,South,184,6.0,-999.0,49,0.00,,,0.00,Haskell-WGSend-v0.01,2013-02-18 17:05:00,
2013-02-18 11:10:00,55.8,37.5,30.23,SSE,167,1.0,-999.0,50,0.00,,,0.00,Haskell-WGSend-v0.01,2013-02-18 17:10:00,
2013-02-18 11:15:00,56.2,37.3,30.23,SSW,199,7.0,-999.0,49,0.00,,,0.00,Haskell-WGSend-v0.01,2013-02-18 17:15:00,
2013-02-18 11:20:00,56.2,37.3,30.23,SSW,211,16.0,-999.0,49,0.00,,,0.00,Haskell-WGSend-v0.01,2013-02-18 17:20:00,
2013-02-18 11:25:00,56.3,37.4,30.22,South,176,4.0,-999.0,49,0.00,,,0.00,Haskell-WGSend-v0.01,2013-02-18 17:25:00,
2013-02-18 11:30:00,56.4,37.5,30.22,SW,221,5.0,-999.0,49,0.00,,,0.00,Haskell-WGSend-v0.01,2013-02-18 17:30:00,
2013-02-18 11:40:00,57.1,37.6,30.22,South,173,7.0,-999.0,48,0.00,,,0.00,Haskell-WGSend-v0.01,2013-02-18 17:40:00,
2013-02-18 11:45:00,57.6,38.1,30.21,SSE,153,5.0,-999.0,48,0.00,,,0.00,Haskell-WGSend-v0.01,2013-02-18 17:45:00,
2013-02-18 11:50:00,57.9,37.8,30.21,SSW,210,10.0,-999.0,47,0.00,,,0.00,Haskell-WGSend-v0.01,2013-02-18 17:50:00,
2013-02-18 11:55:00,57.5,36.9,30.21,South,169,7.0,-999.0,46,0.00,,,0.00,Haskell-WGSend-v0.01,2013-02-18 17:55:00,
2013-02-18 12:00:00,57.8,37.2,30.20,SSW,205,5.0,-999.0,46,0.00,,,0.00,Haskell-WGSend-v0.01,2013-02-18 18:00:00,
2013-02-18 12:10:00,58.1,36.9,30.20,SSE,154,12.0,-999.0,45,0.00,,,0.00,Haskell-WGSend-v0.01,2013-02-18 18:10:00,
2013-02-18 12:15:00,58.2,37.0,30.20,SSW,213,8.0,-999.0,45,0.00,,,0.00,Haskell-WGSend-v0.01,2013-02-18 18:15:00,
2013-02-18 12:20:00,58.4,37.7,30.19,ESE,121,11.0,-999.0,46,0.00,,,0.00,Haskell-WGSend-v0.01,2013-02-18 18:20:00,
2013-02-18 12:25:00,58.6,37.4,30.19,South,187,5.0,-999.0,45,0.00,,,0.00,Haskell-WGSend-v0.01,2013-02-18 18:25:00,
2013-02-18 12:30:00,58.9,37.6,30.18,South,191,7.0,-999.0,45,0.00,,,0.00,Haskell-WGSend-v0.01,2013-02-18 18:30:00,
2013-02-18 12:40:00,59.8,37.3,30.17,SW,236,7.0,-999.0,43,0.00,,,0.00,Haskell-WGSend-v0.01,2013-02-18 18:40:00,
2013-02-18 12:45:00,59.9,38.0,30.16,SSE,161,10.0,-999.0,44,0.00,,,0.00,Haskell-WGSend-v0.01,2013-02-18 18:45:00,
2013-02-18 12:50:00,59.8,37.9,30.16,SSW,211,6.0,-999.0,44,0.00,,,0.00,Haskell-WGSend-v0.01,2013-02-18 18:50:00,
2013-02-18 12:55:00,60.0,37.5,30.16,SSE,157,7.0,-999.0,43,0.00,,,0.00,Haskell-WGSend-v0.01,2013-02-18 18:55:00,
2013-02-18 13:00:00,60.0,37.5,30.15,South,191,3.0,-999.0,43,0.00,,,0.00,Haskell-WGSend-v0.01,2013-02-18 19:00:00,
2013-02-18 13:10:00,60.1,37.6,30.14,SSE,159,2.0,-999.0,43,0.00,,,0.00,Haskell-WGSend-v0.01,2013-02-18 19:10:00,
2013-02-18 13:15:00,60.4,37.8,30.13,SW,216,3.0,-999.0,43,0.00,,,0.00,Haskell-WGSend-v0.01,2013-02-18 19:15:00,
2013-02-18 13:20:00,60.7,37.5,30.13,South,176,4.0,-999.0,42,0.00,,,0.00,Haskell-WGSend-v0.01,2013-02-18 19:20:00,
2013-02-18 13:25:00,61.1,38.5,30.13,South,172,0.0,-999.0,43,0.00,,,0.00,Haskell-WGSend-v0.01,2013-02-18 19:25:00,
2013-02-18 13:30:00,61.3,38.0,30.12,ESE,111,8.0,-999.0,42,0.00,,,0.00,Haskell-WGSend-v0.01,2013-02-18 19:30:00,
2013-02-18 13:35:00,61.3,38.0,30.12,SSE,153,2.0,-999.0,42,0.00,,,0.00,Haskell-WGSend-v0.01,2013-02-18 19:35:00,
2013-02-18 13:40:00,61.0,38.4,30.12,SSE,157,6.0,-999.0,43,0.00,,,0.00,Haskell-WGSend-v0.01,2013-02-18 19:40:00,
2013-02-18 13:45:00,60.7,38.1,30.12,SE,131,4.0,-999.0,43,0.00,,,0.00,Haskell-WGSend-v0.01,2013-02-18 19:45:00,
2013-02-18 13:50:00,60.7,38.1,30.12,SE,142,5.0,-999.0,43,0.00,,,0.00,Haskell-WGSend-v0.01,2013-02-18 19:50:00,
2013-02-18 13:55:00,60.6,37.4,30.12,SE,144,5.0,-999.0,42,0.00,,,0.00,Haskell-WGSend-v0.01,2013-02-18 19:55:00,
2013-02-18 14:00:00,60.5,37.9,30.11,SE,137,2.0,-999.0,43,0.00,,,0.00,Haskell-WGSend-v0.01,2013-02-18 20:00:00,
2013-02-18 14:05:00,60.6,38.0,30.11,South,173,2.0,-999.0,43,0.00,,,0.00,Haskell-WGSend-v0.01,2013-02-18 20:05:00,
2013-02-18 14:10:00,60.4,37.8,30.11,South,173,9.0,-999.0,43,0.00,,,0.00,Haskell-WGSend-v0.01,2013-02-18 20:10:00,
2013-02-18 14:15:00,60.2,38.2,30.11,SE,138,9.0,-999.0,44,0.00,,,0.00,Haskell-WGSend-v0.01,2013-02-18 20:15:00,
2013-02-18 14:20:00,60.0,38.1,30.11,SE,139,4.0,-999.0,44,0.00,,,0.00,Haskell-WGSend-v0.01,2013-02-18 20:20:00,
2013-02-18 14:25:00,59.9,38.0,30.11,SSE,165,6.0,-999.0,44,0.00,,,0.00,Haskell-WGSend-v0.01,2013-02-18 20:25:00,
2013-02-18 14:30:00,59.9,38.0,30.11,South,186,4.0,-999.0,44,0.00,,,0.00,Haskell-WGSend-v0.01,2013-02-18 20:30:00,
2013-02-18 14:35:00,60.0,37.5,30.11,SE,141,9.0,-999.0,43,0.00,,,0.00,Haskell-WGSend-v0.01,2013-02-18 20:35:00,
2013-02-18 14:40:00,59.8,37.3,30.11,SSE,163,6.0,-999.0,43,0.00,,,0.00,Haskell-WGSend-v0.01,2013-02-18 20:40:00,
2013-02-18 14:45:00,59.7,37.8,30.10,SSW,203,3.0,-999.0,44,0.00,,,0.00,Haskell-WGSend-v0.01,2013-02-18 20:45:00,
2013-02-18 14:50:00,59.6,37.1,30.10,SSE,165,2.0,-999.0,43,0.00,,,0.00,Haskell-WGSend-v0.01,2013-02-18 20:50:00,
2013-02-18 14:55:00,59.5,37.0,30.09,SW,218,9.0,-999.0,43,0.00,,,0.00,Haskell-WGSend-v0.01,2013-02-18 20:55:00,
2013-02-18 15:00:00,59.5,36.4,30.09,SSE,163,6.0,-999.0,42,0.00,,,0.00,Haskell-WGSend-v0.01,2013-02-18 21:00:00,
2013-02-18 15:05:00,59.6,37.1,30.09,SE,142,5.0,-999.0,43,0.00,,,0.00,Haskell-WGSend-v0.01,2013-02-18 21:05:00,
2013-02-18 15:10:00,59.8,36.7,30.08,South,170,6.0,-999.0,42,0.00,,,0.00,Haskell-WGSend-v0.01,2013-02-18 21:10:00,
2013-02-18 15:20:00,60.2,36.4,30.07,SW,226,3.0,-999.0,41,0.00,,,0.00,Haskell-WGSend-v0.01,2013-02-18 21:20:00,
2013-02-18 15:25:00,60.3,36.5,30.07,South,186,1.0,-999.0,41,0.00,,,0.00,Haskell-WGSend-v0.01,2013-02-18 21:25:00,
2013-02-18 15:30:00,60.3,36.5,30.07,SSE,161,6.0,-999.0,41,0.00,,,0.00,Haskell-WGSend-v0.01,2013-02-18 21:30:00,
2013-02-18 15:35:00,60.3,36.5,30.07,SSE,153,6.0,-999.0,41,0.00,,,0.00,Haskell-WGSend-v0.01,2013-02-18 21:35:00,
2013-02-18 15:40:00,60.3,36.5,30.07,SE,146,4.0,-999.0,41,0.00,,,0.00,Haskell-WGSend-v0.01,2013-02-18 21:40:00,
2013-02-18 15:45:00,60.1,36.4,30.06,South,188,8.0,-999.0,41,0.00,,,0.00,Haskell-WGSend-v0.01,2013-02-18 21:45:00,
2013-02-18 15:50:00,59.9,36.2,30.06,SE,133,7.0,-999.0,41,0.00,,,0.00,Haskell-WGSend-v0.01,2013-02-18 21:50:00,
2013-02-18 15:55:00,59.9,36.2,30.06,SSW,194,15.0,-999.0,41,0.00,,,0.00,Haskell-WGSend-v0.01,2013-02-18 21:55:00,
2013-02-18 16:05:00,59.6,35.3,30.05,SSE,163,9.0,-999.0,40,0.00,,,0.00,Haskell-WGSend-v0.01,2013-02-18 22:05:00,
2013-02-18 16:10:00,59.5,35.2,30.05,South,184,1.0,-999.0,40,0.00,,,0.00,Haskell-WGSend-v0.01,2013-02-18 22:10:00,
2013-02-18 16:20:00,59.4,35.7,30.05,SSE,148,6.0,-999.0,41,0.00,,,0.00,Haskell-WGSend-v0.01,2013-02-18 22:20:00,
2013-02-18 16:25:00,59.3,35.6,30.05,SSE,153,2.0,-999.0,41,0.00,,,0.00,Haskell-WGSend-v0.01,2013-02-18 22:25:00,
2013-02-18 16:30:00,59.1,35.5,30.04,South,170,4.0,-999.0,41,0.00,,,0.00,Haskell-WGSend-v0.01,2013-02-18 22:30:00,
2013-02-18 16:40:00,58.9,35.9,30.03,South,186,1.0,-999.0,42,0.00,,,0.00,Haskell-WGSend-v0.01,2013-02-18 22:40:00,
2013-02-18 16:45:00,58.8,35.8,30.03,SSE,167,2.0,-999.0,42,0.00,,,0.00,Haskell-WGSend-v0.01,2013-02-18 22:45:00,
2013-02-18 16:50:00,58.6,36.2,30.03,ENE,69,8.0,-999.0,43,0.00,,,0.00,Haskell-WGSend-v0.01,2013-02-18 22:50:00,
2013-02-18 17:00:00,58.4,36.0,30.03,ESE,108,5.0,-999.0,43,0.00,,,0.00,Haskell-WGSend-v0.01,2013-02-18 23:00:00,
2013-02-18 17:05:00,58.2,35.8,30.02,SSE,165,13.0,-999.0,43,0.00,,,0.00,Haskell-WGSend-v0.01,2013-02-18 23:05:00,
2013-02-18 17:10:00,58.1,35.8,30.02,SSW,209,3.0,-999.0,43,0.00,,,0.00,Haskell-WGSend-v0.01,2013-02-18 23:10:00,
2013-02-18 17:15:00,57.9,35.6,30.02,SSW,203,6.0,-999.0,43,0.00,,,0.00,Haskell-WGSend-v0.01,2013-02-18 23:15:00,
2013-02-18 17:20:00,57.8,35.5,30.02,South,190,0.0,-999.0,43,0.00,,,0.00,Haskell-WGSend-v0.01,2013-02-18 23:20:00,
2013-02-18 17:25:00,57.7,35.4,30.03,SSW,201,7.0,-999.0,43,0.00,,,0.00,Haskell-WGSend-v0.01,2013-02-18 23:25:00,
2013-02-18 17:30:00,57.6,35.3,30.02,South,179,8.0,-999.0,43,0.00,,,0.00,Haskell-WGSend-v0.01,2013-02-18 23:30:00,
2013-02-18 17:35:00,57.4,35.1,30.02,SSE,160,7.0,-999.0,43,0.00,,,0.00,Haskell-WGSend-v0.01,2013-02-18 23:35:00,
2013-02-18 17:40:00,57.2,34.9,30.03,South,183,3.0,-999.0,43,0.00,,,0.00,Haskell-WGSend-v0.01,2013-02-18 23:40:00,
2013-02-18 17:45:00,57.1,34.9,30.03,SSE,149,8.0,-999.0,43,0.00,,,0.00,Haskell-WGSend-v0.01,2013-02-18 23:45:00,
2013-02-18 17:50:00,57.0,34.8,30.02,SE,142,2.0,-999.0,43,0.00,,,0.00,Haskell-WGSend-v0.01,2013-02-18 23:50:00,
2013-02-18 17:55:00,56.9,34.7,30.02,SSE,157,6.0,-999.0,43,0.00,,,0.00,Haskell-WGSend-v0.01,2013-02-18 23:55:00,
2013-02-18 18:00:00,56.8,34.6,30.02,East,100,5.0,-999.0,43,0.00,,,0.00,Haskell-WGSend-v0.01,2013-02-19 00:00:00,
2013-02-18 18:05:00,56.8,34.6,30.02,ESE,123,1.0,-999.0,43,0.00,,,0.00,Haskell-WGSend-v0.01,2013-02-19 00:05:00,
2013-02-18 18:10:00,56.8,34.0,30.01,SSW,200,8.0,-999.0,42,0.00,,,0.00,Haskell-WGSend-v0.01,2013-02-19 00:10:00,
2013-02-18 18:20:00,56.7,33.9,30.00,ESE,121,4.0,-999.0,42,0.00,,,0.00,Haskell-WGSend-v0.01,2013-02-19 00:20:00,
2013-02-18 18:25:00,56.5,33.7,30.00,SE,134,7.0,-999.0,42,0.00,,,0.00,Haskell-WGSend-v0.01,2013-02-19 00:25:00,
2013-02-18 18:30:00,56.3,33.5,30.01,SE,137,9.0,-999.0,42,0.00,,,0.00,Haskell-WGSend-v0.01,2013-02-19 00:30:00,
2013-02-18 18:35:00,56.2,33.5,30.01,SW,220,5.0,-999.0,42,0.00,,,0.00,Haskell-WGSend-v0.01,2013-02-19 00:35:00,
2013-02-18 18:45:00,55.9,32.6,30.01,SE,136,6.0,-999.0,41,0.00,,,0.00,Haskell-WGSend-v0.01,2013-02-19 00:45:00,
2013-02-18 18:50:00,55.9,32.6,30.00,SSE,153,2.0,-999.0,41,0.00,,,0.00,Haskell-WGSend-v0.01,2013-02-19 00:50:00,
2013-02-18 18:55:00,55.9,32.6,30.00,ESE,122,1.0,-999.0,41,0.00,,,0.00,Haskell-WGSend-v0.01,2013-02-19 00:55:00,
2013-02-18 19:05:00,55.9,32.6,30.01,SSW,212,11.0,-999.0,41,0.00,,,0.00,Haskell-WGSend-v0.01,2013-02-19 01:05:00,
2013-02-18 19:10:00,55.8,32.5,30.01,SE,140,6.0,-999.0,41,0.00,,,0.00,Haskell-WGSend-v0.01,2013-02-19 01:10:00,
2013-02-18 19:20:00,55.8,32.5,30.00,South,175,5.0,-999.0,41,0.00,,,0.00,Haskell-WGSend-v0.01,2013-02-19 01:20:00,
2013-02-18 19:25:00,55.7,32.4,30.00,SSW,201,9.0,-999.0,41,0.00,,,0.00,Haskell-WGSend-v0.01,2013-02-19 01:25:00,
2013-02-18 19:30:00,55.8,32.5,30.00,SE,136,5.0,-999.0,41,0.00,,,0.00,Haskell-WGSend-v0.01,2013-02-19 01:30:00,
2013-02-18 19:40:00,55.8,32.5,30.01,South,170,5.0,-999.0,41,0.00,,,0.00,Haskell-WGSend-v0.01,2013-02-19 01:40:00,
2013-02-18 19:45:00,55.7,32.4,30.00,SE,144,8.0,-999.0,41,0.00,,,0.00,Haskell-WGSend-v0.01,2013-02-19 01:45:00,
2013-02-18 19:50:00,55.7,32.4,29.99,SSE,163,6.0,-999.0,41,0.00,,,0.00,Haskell-WGSend-v0.01,2013-02-19 01:50:00,
2013-02-18 20:00:00,55.5,32.8,29.99,SE,132,7.0,-999.0,42,0.00,,,0.00,Haskell-WGSend-v0.01,2013-02-19 02:00:00,
2013-02-18 20:05:00,55.5,32.8,29.98,SSE,153,7.0,-999.0,42,0.00,,,0.00,Haskell-WGSend-v0.01,2013-02-19 02:05:00,
2013-02-18 20:15:00,55.3,32.6,29.97,SSE,147,7.0,-999.0,42,0.00,,,0.00,Haskell-WGSend-v0.01,2013-02-19 02:15:00,
2013-02-18 20:20:00,55.3,32.6,29.97,SE,140,9.0,-999.0,42,0.00,,,0.00,Haskell-WGSend-v0.01,2013-02-19 02:20:00,
2013-02-18 20:25:00,55.2,33.1,29.97,SE,134,15.0,-999.0,43,0.00,,,0.00,Haskell-WGSend-v0.01,2013-02-19 02:25:00,
2013-02-18 20:30:00,55.2,33.1,29.97,ESE,117,4.0,-999.0,43,0.00,,,0.00,Haskell-WGSend-v0.01,2013-02-19 02:30:00,
2013-02-18 20:40:00,55.3,33.2,29.97,SSE,162,6.0,-999.0,43,0.00,,,0.00,Haskell-WGSend-v0.01,2013-02-19 02:40:00,
2013-02-18 20:45:00,55.3,33.2,29.97,South,176,6.0,-999.0,43,0.00,,,0.00,Haskell-WGSend-v0.01,2013-02-19 02:45:00,
2013-02-18 20:50:00,55.3,33.2,29.97,South,175,4.0,-999.0,43,0.00,,,0.00,Haskell-WGSend-v0.01,2013-02-19 02:50:00,
2013-02-18 20:55:00,55.4,33.3,29.96,SSE,161,7.0,-999.0,43,0.00,,,0.00,Haskell-WGSend-v0.01,2013-02-19 02:55:00,
2013-02-18 21:05:00,55.4,33.9,29.97,SW,221,10.0,-999.0,44,0.00,,,0.00,Haskell-WGSend-v0.01,2013-02-19 03:05:00,
2013-02-18 21:10:00,55.4,33.9,29.96,South,182,5.0,-999.0,44,0.00,,,0.00,Haskell-WGSend-v0.01,2013-02-19 03:10:00,
2013-02-18 21:20:00,55.4,33.9,29.96,SSE,161,4.0,-999.0,44,0.00,,,0.00,Haskell-WGSend-v0.01,2013-02-19 03:20:00,
2013-02-18 21:25:00,55.4,33.9,29.96,SE,134,9.0,-999.0,44,0.00,,,0.00,Haskell-WGSend-v0.01,2013-02-19 03:25:00,
2013-02-18 21:35:00,55.5,34.5,29.96,South,173,9.0,-999.0,45,0.00,,,0.00,Haskell-WGSend-v0.01,2013-02-19 03:35:00,
2013-02-18 21:40:00,55.4,34.4,29.96,South,182,5.0,-999.0,45,0.00,,,0.00,Haskell-WGSend-v0.01,2013-02-19 03:40:00,
2013-02-18 21:45:00,55.4,34.4,29.95,South,172,6.0,-999.0,45,0.00,,,0.00,Haskell-WGSend-v0.01,2013-02-19 03:45:00,
2013-02-18 21:55:00,55.3,36.0,29.94,SSW,204,10.0,-999.0,48,0.00,,,0.00,Haskell-WGSend-v0.01,2013-02-19 03:55:00,
2013-02-18 22:05:00,54.0,37.3,29.94,SE,134,13.0,-999.0,53,0.00,,,0.00,Haskell-WGSend-v0.01,2013-02-19 04:05:00,
2013-02-18 22:10:00,53.6,36.9,29.92,SE,138,7.0,-999.0,53,0.00,,,0.00,Haskell-WGSend-v0.01,2013-02-19 04:10:00,
2013-02-18 22:15:00,53.3,37.6,29.92,SSE,157,5.0,-999.0,55,0.00,,,0.00,Haskell-WGSend-v0.01,2013-02-19 04:15:00,
2013-02-18 22:20:00,53.0,38.2,29.93,SE,136,4.0,-999.0,57,0.00,,,0.01,Haskell-WGSend-v0.01,2013-02-19 04:20:00,
2013-02-18 22:25:00,52.3,39.3,29.94,South,190,7.0,-999.0,61,0.15,,,0.02,Haskell-WGSend-v0.01,2013-02-19 04:25:00,
2013-02-18 22:35:00,50.9,40.0,29.93,South,179,2.0,-999.0,66,0.05,,,0.02,Haskell-WGSend-v0.01,2013-02-19 04:35:00,
2013-02-18 22:40:00,50.5,40.0,29.94,South,178,9.0,-999.0,67,0.04,,,0.02,Haskell-WGSend-v0.01,2013-02-19 04:40:00,
2013-02-18 22:50:00,50.0,40.3,29.95,SE,137,7.0,-999.0,69,0.29,,,0.04,Haskell-WGSend-v0.01,2013-02-19 04:50:00,
2013-02-18 22:55:00,49.7,41.1,29.95,SSE,163,0.0,-999.0,72,0.10,,,0.04,Haskell-WGSend-v0.01,2013-02-19 04:55:00,
2013-02-18 23:00:00,49.3,41.0,29.95,South,180,6.0,-999.0,73,0.28,,,0.06,Haskell-WGSend-v0.01,2013-02-19 05:00:00,
2013-02-18 23:05:00,48.8,41.2,29.95,SSE,157,4.0,-999.0,75,0.14,,,0.07,Haskell-WGSend-v0.01,2013-02-19 05:05:00,
2013-02-18 23:15:00,48.1,41.6,29.98,South,176,1.0,-999.0,78,0.41,,,0.11,Haskell-WGSend-v0.01,2013-02-19 05:15:00,
2013-02-18 23:20:00,47.8,41.6,30.00,SW,215,3.0,-999.0,79,0.35,,,0.14,Haskell-WGSend-v0.01,2013-02-19 05:20:00,
2013-02-18 23:25:00,47.5,41.7,30.00,SSW,213,10.0,-999.0,80,0.12,,,0.15,Haskell-WGSend-v0.01,2013-02-19 05:25:00,
2013-02-18 23:35:00,47.1,42.2,30.00,SSE,160,7.0,-999.0,83,0.59,,,0.20,Haskell-WGSend-v0.01,2013-02-19 05:35:00,
2013-02-18 23:40:00,46.8,42.2,29.98,SE,140,6.0,-999.0,84,0.25,,,0.22,Haskell-WGSend-v0.01,2013-02-19 05:40:00,
2013-02-18 23:50:00,46.2,42.3,29.99,SSW,202,10.0,-999.0,86,0.40,,,0.28,Haskell-WGSend-v0.01,2013-02-19 05:50:00,
2013-02-18 23:55:00,46.0,42.4,29.99,SSW,205,7.0,-999.0,87,0.32,,,0.30,Haskell-WGSend-v0.01,2013-02-19 05:55:00,